Simultaneous Nadir Overpasses (SNOs) Predictions

Prediction of SNOs between GOES-14 and AQUA Satellite Orbit:

Table of predicted SNOs for the next 14.0 days since TLE Epoch: 11/6/2021
Index Date Time (GOES-14) GOES-14 Lat,Lon AQUA Lat,Lon Distance(km) Time Diff (sec)
1 11/06/2021 08:21:01 0.17,-104.34 -0.39,-101.72 298.85 80
2 11/06/2021 20:42:25 -0.14,-104.16 -0.74,-106.90 312.47 80
3 11/08/2021 20:32:55 -0.14,-104.16 -0.09,-103.95 23.81 80
4 11/10/2021 20:20:44 -0.14,-104.16 0.51,-100.99 360.41 80
5 11/11/2021 08:42:01 0.12,-104.37 0.51,-106.16 203.51 80
6 11/13/2021 08:27:11 0.12,-104.38 -0.16,-103.21 133.15 80
7 11/13/2021 20:48:34 -0.09,-104.15 -1.02,-108.39 482.55 80
8 11/15/2021 08:15:00 0.12,-104.39 -0.78,-100.25 470.40 80
9 11/15/2021 20:36:23 -0.10,-104.16 -0.40,-105.43 144.58 80
10 11/17/2021 20:26:52 -0.10,-104.18 0.24,-102.47 193.48 80
11 11/18/2021 08:48:09 0.08,-104.43 0.77,-107.65 365.74 80
